AirNav   Air Wisconsin pilot careers
 
 846 users online  

9Z8 Levelock Airport
Levelock, Alaska, USA

GOING TO LEVELOCK?


FAA INFORMATION EFFECTIVE 24 MAY 2018

Location

FAA Identifier: 9Z8
Lat/Long: 59-07-37.5000N / 156-51-35.6000W
59-07.625000N / 156-51.593333W
59.1270833 / -156.8598889
(estimated)
Elevation: 55.8 ft. / 17.0 m (surveyed)
Variation: 18E (2000)
From city: 1 mile NNW of LEVELOCK, AK
Time zone: UTC -8 (UTC -9 during Standard Time)

Airport Operations

Airport use: Open to the public
Activation date: 06/2002
Control tower: no
ARTCC: ANCHORAGE CENTER
FSS: KENAI FLIGHT SERVICE STATION [907-283-8469]
NOTAMs facility: ENA (NOTAM-D service available)
Attendance: UNATNDD
Wind indicator: lighted, WINDSOCKS IN SOFT SOIL; MAY BE UNRELIABLE.
Segmented circle: yes
Lights: ACTVT MIRL RY 01/19 - CTAF.
Beacon: white-green (lighted land airport)
ACTVT ROTG BCN - CTAF.

Airport Communications

CTAF: 122.9
UNICOM: 122.95

Nearby radio navigation aids

VOR radial/distance  VOR name  Freq  Var
AKNr336/24.4KING SALMON VORTAC112.8016E

 
NDB name  Hdg/Dist  Freq  Var  ID
CHINOOK338/23.535516EAUB .- ..- -...

Airport Services

Parking: tiedowns

Runway Information

Runway 1/19

Dimensions: 3284 x 60 ft. / 1001 x 18 m
Surface: gravel, in good condition
RY AND SHOLDERS SOFT AND MUDDY WHEN WET. MULTIPLE 2-4 INCH RUTS ON RY EDGES AND CIRCULAR RUTS NEAR RY THLDS.
Runway edge lights: medium intensity
RUNWAY 1  RUNWAY 19
Latitude: 59-07.381872N59-07.866497N
Longitude: 156-51.823312W156-51.364055W
Elevation: 55.4 ft.52.3 ft.
Traffic pattern: leftleft
Runway heading: 008 magnetic, 026 true188 magnetic, 206 true
Touchdown point: yes, no lightsyes, no lights
Obstructions: 27 ft. trees, 634 ft. from runway, 23:1 slope to clear22 ft. trees, 993 ft. from runway, 45:1 slope to clear

Airport Ownership and Management from official FAA records

Ownership: Publicly-owned
Owner: ALASKA DOT&PF SOUTHCOAST REGION
P. O. BOX 196900
ANCHORAGE, AK 99519-6900
Phone 907-269-0767
Manager: PAUL HANSEN
P. O. BOX 65
KING SALMON, AK 99613
Phone 907-246-3325

Airport Operational Statistics

Aircraft operations: avg 28/week *
51% transient general aviation
35% air taxi
14% local general aviation
* for 12-month period ending 31 December 2013

Additional Remarks

RY CONDITION NOT MONITORED; RECOMMEND VISUAL INSPECTION PRIOR TO LANDING.
SAFETY AREAS BYD THLDS SINKING SOFT SAND USE ONLY AS EMERGENCY OVERRUN.

Instrument Procedures

There are no published instrument procedures at 9Z8.

Some nearby airports with instrument procedures:

PANW - New Stuyahok Airport (25 nm NW)
PFWS - South Naknek Nr 2 Airport (26 nm S)
PAKN - King Salmon Airport (28 nm S)
PAIG - Igiugig Airport (32 nm E)
PAJZ - Koliganek Airport (38 nm N)
 
Loc | Ops | Rwys | IFR | FBO | Links
Com | Nav | Svcs | Stats | Notes

Crowley
 
Area around 9Z8 (Levelock Airport)
 
Road maps at: MapQuest Bing Google
 
Aerial photo
No photo
 
Sectional chart

 
Airport distance calculator
Flying to Levelock Airport? Find the distance to fly.

From to 9Z8

Sunrise and sunset
Times for 17-Jun-2018
 Local
(UTC-8)
 Zulu
(UTC)
Morning civil twilight03:4511:45
Sunrise05:1313:13
Sunset23:4307:43
Evening civil twilight01:1109:11

Current date and time
Zulu (UTC)  18-Jun-2018 02:29:53
Local (UTC-8)  17-Jun-2018 18:29:53
 
METAR
PANW 
24nm NW 
180156Z AUTO 09006G17KT 10SM -RA BKN018 OVC025 10/08 A2971 RMK AO2 RAB13 SLP077 P0000 T01000078
PFWS 
26nm S 
180156Z AUTO 06010KT 10SM FEW043 16/07 A2966 RMK AO2 WSHFT 0113 SLP050 T01560067
PAKN 
27nm S 
180154Z 09012G18KT 10SM CLR 14/06 A2963 RMK AO2 SLP032 T01440061 $
PAIG 
32nm E 
180156Z AUTO 06020G27KT 10SM BKN110 11/08 A2969 RMK AO2 PK WND 05029/0112 SLP066 T01110078 $
PAJZ 
38nm N 
180156Z AUTO 12017G22KT 6SM HZ FEW046 BKN060 OVC070 11/07 A2976 RMK AO2 PK WND 11031/0141 RAB19E46 SLP086 P0000 T01060072 $
TAF
PAKN 
27nm S 
171745Z 1718/1818 15012KT P6SM VCSH SCT030 OVC050 FM172100 15021G28KT P6SM BKN060 FM180200 12011G18KT P6SM BKN050 FM180800 06009KT 6SM -RA BR OVC025
NOTAMs
Click for the latest NOTAMs
NOTAMs are issued by the DoD/FAA and will open in a separate window not controlled by AirNav.

 

 
 

Would you like to see your business listed on this page?

 If your business provides an interesting product or service to pilots, flight crews, aircraft, or users of the Levelock Airport, you should consider listing it here.  To start the listing process, click on the button below
 
Add a business
 

Other Pages about Levelock Airport

Update a link
 
Copyright © AirNav, LLC. All rights reserved. Privacy Policy  Contact